Historyczne dane pomiarowe

Dodano dane terminowe – wersja testowa.

Dane z okresu 1951-2019

Wersja bazy: 1.34 [2019-03-16, lista zmian], aktualizacja planowana na 2019-04-15

Dane meteo z obszaru Polski uzyskane na podstawie danych udostępnionych przez Instytut Meteorologii i Gospodarki Wodnej – Państwowy Instytut Badawczy.

 

Wybierz Datę:    

       

TemperaturaWilgotnośćZachmurzenieWiatrCiśnienieWidzialnośćZjawiska
 Data    tng td wb rh cc ccl cl cm ch dir g1 g2 mslp ppp      
1973-04-28 00:00:00 -0.6--- -2.4 -1.487wxwx7wx--- 832.3 0.0---wx
1973-04-28 01:00:00 -0.4------wxwx8wx--- 832.3----wx
1973-04-28 02:00:00 -0.2------wxwxwx8wx--- 831.8----wx
1973-04-28 03:00:00 0.4--- -2.2 -0.881wxwxwx9wx--- 831.6----wx
1973-04-28 04:00:00 0.3------wxwxwxwxwx8wx--- 831.5----wx
1973-04-28 05:00:00 -0.4------wxwxwxwx9wx--- 831.2----wx
1973-04-28 06:00:00 -0.1--- -3.0 -1.380wxwxwx9wx--- 831.3 0.0---wx
1973-04-28 07:00:00 0.6------wxwxwx7wx--- 831.3----wx
1973-04-28 08:00:00 1.4------wxwxwx5wx--- 831.2----wx
1973-04-28 09:00:00 1.8--- -1.9 0.277wxwxwx7wx--- 831.1----wx
1973-04-28 10:00:00 2.2------wxwxwxwx6wx--- 830.9----wx
1973-04-28 11:00:00 2.8------wxwxwxwx6wx--- 830.7----wx
1973-04-28 12:00:00 3.4--- -0.9 1.472wxwxwxwx8wx--- 830.2 0.0---wx
1973-04-28 13:00:00 4.2------wxwxwxwx5wx--- 829.8----wx
1973-04-28 14:00:00 4.2------wxwxwxwx6wx--- 829.6----wx
1973-04-28 15:00:00 4.4--- -1.2 2.068wxwxwxwx6wx--- 829.6----wx
1973-04-28 16:00:00 4.8------wxwxwxwx7wx--- 829.2----wx
1973-04-28 17:00:00 4.4------wxwxwxwx9wx--- 828.3----wx
1973-04-28 18:00:00 4.2--- -3.5 1.058wxwxwxwx9wx--- 828.4 0.0---wx
1973-04-28 19:00:00 4.2------wxwxwxwx8wx--- 828.4----wx
1973-04-28 20:00:00 3.8------wxwxwxwx9wx--- 828.2----wx
1973-04-28 21:00:00 3.4--- 2.3 2.892wxwxwx12wx--- 828.0----wx
1973-04-28 22:00:00 2.8------wxwxwxwx11wx--- 827.7----wx
1973-04-28 23:00:00 2.3------wxwxwxwx13wx--- 827.2----wx

 

Źródłem pochodzenia danych jest Instytut Meteorologii i Gospodarki Wodnej – Państwowy Instytut Badawczy. Dane Instytutu Meteorologii i Gospodarki Wodnej – Państwowego Instytutu Badawczego zostały przetworzone.

Dane źródłowe można odnaleźć na stronie https://dane.imgw.pl